Location: Emory University Observatory
(33.7903°N, 84.3267°W)
Time: 22:43:28
(UTC-04:00)

N. Korean satellite - Pass Details

Date: 11 October 2017
Orbit: 459 x 517 km, 97.2° (Epoch: 21 October)

Event Time Altitude Azimuth Distance (km) Brightness Sun altitude
Rises 20:31:28 0° 199° (SSW) 2,570 10.4 -18.1°
Reaches altitude 10° 20:34:00 10° 217° (SW) 1,681 9.7 -18.7°
Maximum altitude 20:36:38 19° 264° (W) 1,212 9.5 -19.2°
Drops below altitude 10° 20:39:15 10° 311° (NW) 1,665 10.0 -19.7°
Sets 20:41:45 0° 330° (NNW) 2,537 10.7 -20.3°
